| time (UTC) | temp F | wind direction | speed MPH | gust MPH | rain 1hr in | rain 24hr in | rain mn in | humidity % | barometer mb |
| 20260510213716 | 65 | 345 | 5.0 | 15.0 | 0.00 | 0.07 | 0.00 | 40 | 1020.8 |
| 20260510213434 | 66 | 350 | 9.0 | 11.0 | 0.00 | 0.07 | 0.00 | 42 | 1020.8 |
| 20260510212716 | 66 | 317 | 5.0 | 9.0 | 0.00 | 0.07 | 0.00 | 41 | 1020.8 |
| 20260510212438 | 66 | 311 | 4.0 | 7.0 | 0.00 | 0.07 | 0.00 | 39 | 1020.9 |
| 20260510211925 | 66 | 338 | 4.0 | 14.0 | 0.00 | 0.07 | 0.00 | 39 | 1021.1 |
| 20260510211203 | 66 | 307 | 4.0 | 14.0 | 0.00 | 0.07 | 0.00 | 39 | 1020.8 |
| 20260510210920 | 66 | 358 | 7.0 | 13.0 | 0.00 | 0.07 | 0.00 | 41 | 1021.1 |
| 20260510210203 | 67 | 327 | 4.0 | 11.0 | 0.00 | 0.07 | 0.00 | 42 | 1021.1 |
| 20260510205703 | 66 | 327 | 4.0 | 13.0 | 0.00 | 0.07 | 0.00 | 39 | 1021.1 |
| 20260510205428 | 66 | 25 | 7.0 | 13.0 | 0.00 | 0.07 | 0.00 | 41 | 1021.3 |
| 20260510204704 | 66 | 338 | 4.0 | 13.0 | 0.00 | 0.07 | 0.00 | 42 | 1021.1 |
| 20260510204151 | 66 | 353 | 7.0 | 13.0 | 0.00 | 0.07 | 0.00 | 41 | 1021.2 |
| 20260510203652 | 66 | 294 | 4.0 | 11.0 | 0.00 | 0.07 | 0.00 | 41 | 1021.0 |
| 20260510203154 | 66 | 333 | 7.0 | 11.0 | 0.00 | 0.07 | 0.00 | 40 | 1021.2 |
| 20260510202654 | 66 | 33 | 3.0 | 14.0 | 0.00 | 0.07 | 0.00 | 44 | 1020.9 |
| 20260510202154 | 66 | 320 | 4.0 | 17.0 | 0.00 | 0.07 | 0.00 | 41 | 1021.0 |
| 20260510201654 | 66 | 329 | 6.0 | 17.0 | 0.00 | 0.07 | 0.00 | 38 | 1021.1 |
| 20260510201154 | 67 | 318 | 6.0 | 17.0 | 0.00 | 0.07 | 0.00 | 42 | 1021.1 |
| 20260510200642 | 67 | 331 | 8.0 | 14.0 | 0.00 | 0.07 | 0.00 | 39 | 1021.3 |
| 20260510200142 | 67 | 14 | 5.0 | 11.0 | 0.00 | 0.07 | 0.00 | 40 | 1021.1 |
| 20260510195642 | 67 | 359 | 3.0 | 15.0 | 0.00 | 0.07 | 0.00 | 42 | 1021.1 |
| 20260510195142 | 67 | 346 | 7.0 | 15.0 | 0.00 | 0.07 | 0.00 | 42 | 1021.1 |
| 20260510194642 | 67 | 351 | 5.0 | 15.0 | 0.00 | 0.07 | 0.00 | 43 | 1020.9 |
| 20260510194142 | 66 | 308 | 2.0 | 16.0 | 0.00 | 0.07 | 0.00 | 40 | 1021.2 |
| 20260510193642 | 67 | 331 | 6.0 | 16.0 | 0.00 | 0.07 | 0.00 | 41 | 1021.0 |
| 20260510193143 | 67 | 345 | 8.0 | 14.0 | 0.00 | 0.07 | 0.00 | 42 | 1021.0 |
| 20260510192642 | 66 | 24 | 9.0 | 14.0 | 0.00 | 0.07 | 0.00 | 42 | 1021.0 |
| 20260510192142 | 67 | 322 | 6.0 | 14.0 | 0.00 | 0.07 | 0.00 | 43 | 1020.9 |
| 20260510191639 | 67 | 324 | 6.0 | 11.0 | 0.00 | 0.07 | 0.00 | 45 | 1020.9 |
| 20260510191139 | 66 | 41 | 8.0 | 13.0 | 0.00 | 0.07 | 0.00 | 41 | 1021.0 |
| 20260510190639 | 66 | 23 | 7.0 | 13.0 | 0.00 | 0.07 | 0.00 | 41 | 1020.9 |
| 20260510190140 | 66 | 47 | 5.0 | 13.0 | 0.00 | 0.07 | 0.00 | 41 | 1021.1 |
| 20260510185639 | 65 | 41 | 6.0 | 16.0 | 0.00 | 0.07 | 0.00 | 42 | 1021.1 |
| 20260510185139 | 66 | 25 | 9.0 | 16.0 | 0.00 | 0.07 | 0.00 | 42 | 1021.1 |
| 20260510184904 | 67 | 356 | 4.0 | 13.0 | 0.00 | 0.07 | 0.00 | 42 | 1020.9 |
| 20260510184139 | 66 | 326 | 5.0 | 13.0 | 0.00 | 0.07 | 0.00 | 43 | 1020.8 |
| 20260510183856 | 65 | 33 | 6.0 | 15.0 | 0.00 | 0.07 | 0.00 | 41 | 1020.6 |
| 20260510183139 | 65 | 29 | 5.0 | 15.0 | 0.00 | 0.07 | 0.00 | 49 | 1020.9 |
| 20260510182639 | 65 | 22 | 8.0 | 15.0 | 0.00 | 0.07 | 0.00 | 47 | 1020.7 |
| 20260510182139 | 65 | 321 | 5.0 | 17.0 | 0.00 | 0.07 | 0.00 | 49 | 1021.0 |
| 20260510181637 | 65 | 346 | 8.0 | 17.0 | 0.00 | 0.07 | 0.00 | 44 | 1020.8 |
| 20260510181137 | 65 | 316 | 6.0 | 14.0 | 0.00 | 0.07 | 0.00 | 43 | 1020.8 |
| 20260510180636 | 65 | 320 | 10.0 | 13.0 | 0.00 | 0.07 | 0.00 | 47 | 1020.8 |
| 20260510180358 | 64 | 345 | 8.0 | 13.0 | 0.00 | 0.07 | 0.00 | 44 | 1020.8 |
| 20260510175636 | 64 | 317 | 4.0 | 16.0 | 0.00 | 0.07 | 0.00 | 46 | 1020.9 |
| 20260510175136 | 64 | 30 | 4.0 | 16.0 | 0.00 | 0.07 | 0.00 | 43 | 1021.2 |
| 20260510174856 | 64 | 343 | 5.0 | 16.0 | 0.00 | 0.07 | 0.00 | 44 | 1021.1 |
| 20260510174136 | 64 | 33 | 7.0 | 16.0 | 0.00 | 0.07 | 0.00 | 47 | 1021.0 |
| 20260510173635 | 63 | 345 | 2.0 | 15.0 | 0.00 | 0.07 | 0.00 | 42 | 1021.0 |
| 20260510173355 | 63 | 324 | 7.0 | 15.0 | 0.00 | 0.07 | 0.00 | 45 | 1021.0 |
| 20260510172635 | 63 | 354 | 9.0 | 15.0 | 0.00 | 0.07 | 0.00 | 45 | 1021.3 |
| 20260510172135 | 63 | 47 | 9.0 | 15.0 | 0.00 | 0.07 | 0.00 | 45 | 1021.2 |
| 20260510171636 | 62 | 13 | 8.0 | 15.0 | 0.00 | 0.07 | 0.00 | 47 | 1021.2 |
| 20260510171136 | 62 | 4 | 7.0 | 18.0 | 0.00 | 0.07 | 0.00 | 47 | 1021.2 |
| 20260510170904 | 63 | 326 | 6.0 | 18.0 | 0.00 | 0.07 | 0.00 | 45 | 1021.4 |
| 20260510170136 | 63 | 335 | 7.0 | 16.0 | 0.00 | 0.07 | 0.00 | 47 | 1021.1 |
| 20260510165855 | 61 | 353 | 6.0 | 11.0 | 0.00 | 0.07 | 0.00 | 45 | 1021.3 |
| 20260510165136 | 61 | 345 | 8.0 | 14.0 | 0.00 | 0.07 | 0.00 | 47 | 1021.2 |
| 20260510164635 | 62 | 307 | 6.0 | 15.0 | 0.00 | 0.07 | 0.00 | 45 | 1021.1 |
| 20260510164135 | 62 | 311 | 6.0 | 15.0 | 0.00 | 0.07 | 0.00 | 46 | 1021.2 |
| 20260510163636 | 62 | 334 | 10.0 | 13.0 | 0.00 | 0.07 | 0.00 | 49 | 1021.2 |
| 20260510163135 | 63 | 41 | 5.0 | 13.0 | 0.00 | 0.07 | 0.00 | 51 | 1020.9 |
| 20260510162856 | 62 | 14 | 3.0 | 13.0 | 0.00 | 0.07 | 0.00 | 52 | 1020.9 |
| 20260510162354 | 62 | 343 | 6.0 | 14.0 | 0.00 | 0.07 | 0.00 | 51 | 1020.9 |
| 20260510161635 | 61 | 18 | 5.0 | 14.0 | 0.00 | 0.07 | 0.00 | 50 | 1021.2 |
| 20260510161134 | 60 | 16 | 6.0 | 10.0 | 0.00 | 0.07 | 0.00 | 51 | 1021.4 |
| 20260510160902 | 60 | 36 | 7.0 | 11.0 | 0.00 | 0.07 | 0.00 | 52 | 1021.4 |
| 20260510160135 | 60 | 343 | 7.0 | 11.0 | 0.00 | 0.07 | 0.00 | 51 | 1021.4 |
| 20260510155629 | 60 | 337 | 9.0 | 10.0 | 0.00 | 0.07 | 0.00 | 53 | 1021.2 |
| 20260510155128 | 59 | 38 | 6.0 | 8.0 | 0.00 | 0.07 | 0.00 | 60 | 1021.5 |
| 20260510154628 | 59 | 39 | 4.0 | 9.0 | 0.00 | 0.07 | 0.00 | 59 | 1021.3 |
| 20260510154115 | 60 | 30 | 6.0 | 9.0 | 0.00 | 0.07 | 0.00 | 58 | 1021.4 |
| 20260510153615 | 60 | 17 | 4.0 | 9.0 | 0.00 | 0.07 | 0.00 | 61 | 1021.6 |
| 20260510153116 | 59 | 23 | 4.0 | 9.0 | 0.00 | 0.07 | 0.00 | 58 | 1021.3 |
| 20260510152615 | 58 | 43 | 2.0 | 9.0 | 0.00 | 0.07 | 0.00 | 62 | 1021.2 |
| 20260510152115 | 57 | 25 | 3.0 | 9.0 | 0.00 | 0.07 | 0.00 | 62 | 1021.4 |
| 20260510151616 | 57 | 3 | 4.0 | 9.0 | 0.00 | 0.07 | 0.00 | 62 | 1021.2 |
| 20260510151333 | 56 | 313 | 4.0 | 9.0 | 0.00 | 0.07 | 0.00 | 61 | 1021.3 |
| 20260510150616 | 56 | 342 | 5.0 | 10.0 | 0.00 | 0.07 | 0.00 | 62 | 1021.3 |
| 20260510150116 | 56 | 337 | 5.0 | 10.0 | 0.00 | 0.07 | 0.00 | 60 | 1021.2 |
| 20260510145616 | 56 | 352 | 4.0 | 9.0 | 0.00 | 0.07 | 0.00 | 60 | 1021.2 |
| 20260510145115 | 56 | 1 | 7.0 | 9.0 | 0.00 | 0.07 | 0.00 | 60 | 1021.2 |
| 20260510144604 | 57 | 330 | 5.0 | 9.0 | 0.00 | 0.07 | 0.00 | 62 | 1021.1 |
| 20260510144103 | 57 | 36 | 3.0 | 13.0 | 0.00 | 0.07 | 0.00 | 61 | 1021.2 |
| 20260510143603 | 56 | 330 | 4.0 | 13.0 | 0.00 | 0.07 | 0.00 | 60 | 1021.1 |
| 20260510143104 | 57 | 326 | 6.0 | 14.0 | 0.00 | 0.07 | 0.00 | 62 | 1021.1 |
| 20260510142826 | 57 | 0 | 6.0 | 14.0 | 0.00 | 0.07 | 0.00 | 62 | 1021.0 |
| 20260510142104 | 56 | 11 | 7.0 | 13.0 | 0.00 | 0.07 | 0.00 | 60 | 1021.0 |
| 20260510141827 | 56 | 39 | 6.0 | 14.0 | 0.00 | 0.07 | 0.00 | 60 | 1020.9 |
| 20260510141104 | 57 | 13 | 7.0 | 15.0 | 0.00 | 0.07 | 0.00 | 60 | 1020.5 |
| 20260510140554 | 57 | 9 | 9.0 | 15.0 | 0.00 | 0.07 | 0.00 | 63 | 1020.5 |
| 20260510140313 | 57 | 34 | 6.0 | 13.0 | 0.00 | 0.07 | 0.00 | 61 | 1020.4 |
| 20260510135807 | 57 | 4 | 9.0 | 13.0 | 0.00 | 0.07 | 0.00 | 58 | 1020.5 |
| 20260510135042 | 57 | 12 | 6.0 | 13.0 | 0.00 | 0.07 | 0.00 | 62 | 1020.2 |
| 20260510134542 | 57 | 331 | 5.0 | 13.0 | 0.00 | 0.07 | 0.00 | 62 | 1020.0 |
| 20260510134042 | 56 | 11 | 9.0 | 13.0 | 0.00 | 0.07 | 0.00 | 61 | 1020.0 |
| 20260510133542 | 56 | 342 | 6.0 | 13.0 | 0.00 | 0.07 | 0.00 | 62 | 1019.9 |
| 20260510133042 | 55 | 10 | 5.0 | 14.0 | 0.00 | 0.07 | 0.00 | 62 | 1019.9 |
| 20260510132543 | 55 | 5 | 6.0 | 14.0 | 0.00 | 0.07 | 0.00 | 63 | 1019.9 |
| 20260510132043 | 55 | 341 | 4.0 | 14.0 | 0.00 | 0.07 | 0.00 | 64 | 1019.7 |
| 20260510131542 | 55 | 11 | 9.0 | 14.0 | 0.00 | 0.07 | 0.00 | 64 | 1019.7 |
| 20260510131042 | 55 | 21 | 7.0 | 14.0 | 0.00 | 0.07 | 0.00 | 64 | 1019.8 |
| 20260510130542 | 55 | 16 | 5.0 | 14.0 | 0.00 | 0.07 | 0.00 | 63 | 1019.6 |
| 20260510130042 | 54 | 14 | 6.0 | 13.0 | 0.00 | 0.07 | 0.00 | 64 | 1019.6 |
| 20260510125542 | 54 | 6 | 5.0 | 13.0 | 0.00 | 0.07 | 0.00 | 65 | 1019.7 |
| 20260510125042 | 54 | 23 | 6.0 | 13.0 | 0.00 | 0.07 | 0.00 | 67 | 1019.5 |
| 20260510125024 | 54 | 358 | 7.0 | 10.0 | 0.00 | 0.07 | 0.00 | 66 | 1019.3 |
| 20260510124043 | 53 | 359 | 6.0 | 10.0 | 0.00 | 0.07 | 0.00 | 66 | 1019.5 |
| 20260510123542 | 53 | 345 | 6.0 | 13.0 | 0.00 | 0.07 | 0.00 | 66 | 1019.5 |
| 20260510123042 | 53 | 345 | 5.0 | 13.0 | 0.00 | 0.07 | 0.00 | 66 | 1019.4 |
| 20260510122542 | 53 | 357 | 8.0 | 11.0 | 0.00 | 0.07 | 0.00 | 66 | 1019.0 |
| 20260510122306 | 53 | 320 | 7.0 | 11.0 | 0.00 | 0.07 | 0.00 | 65 | 1019.1 |
| 20260510121542 | 53 | 323 | 4.0 | 11.0 | 0.00 | 0.07 | 0.00 | 67 | 1018.9 |
| 20260510121042 | 53 | 338 | 6.0 | 11.0 | 0.00 | 0.07 | 0.00 | 67 | 1019.1 |
| 20260510120542 | 53 | 317 | 3.0 | 9.0 | 0.00 | 0.07 | 0.00 | 67 | 1018.9 |
| 20260510120042 | 53 | 15 | 4.0 | 10.0 | 0.00 | 0.07 | 0.00 | 67 | 1018.9 |
| 20260510115542 | 53 | 329 | 5.0 | 10.0 | 0.00 | 0.07 | 0.00 | 68 | 1018.9 |
| 20260510115042 | 53 | 357 | 6.0 | 9.0 | 0.00 | 0.07 | 0.00 | 67 | 1018.7 |
| 20260510114543 | 53 | 328 | 4.0 | 8.0 | 0.00 | 0.07 | 0.00 | 67 | 1018.6 |
| 20260510114042 | 53 | 328 | 5.0 | 9.0 | 0.00 | 0.07 | 0.00 | 67 | 1018.6 |
| 20260510113542 | 53 | 330 | 4.0 | 9.0 | 0.00 | 0.07 | 0.00 | 68 | 1018.7 |
| 20260510113042 | 53 | 328 | 5.0 | 9.0 | 0.00 | 0.07 | 0.00 | 67 | 1018.3 |
| 20260510112542 | 53 | 329 | 4.0 | 9.0 | 0.00 | 0.07 | 0.00 | 67 | 1018.4 |
| 20260510112042 | 53 | 325 | 4.0 | 10.0 | 0.00 | 0.07 | 0.00 | 67 | 1018.0 |
| 20260510111543 | 53 | 353 | 4.0 | 13.0 | 0.00 | 0.07 | 0.00 | 67 | 1017.9 |
| 20260510111043 | 53 | 337 | 4.0 | 13.0 | 0.00 | 0.07 | 0.00 | 68 | 1017.6 |
| 20260510110542 | 54 | 342 | 2.0 | 9.0 | 0.00 | 0.07 | 0.00 | 68 | 1017.9 |
| 20260510110042 | 54 | 338 | 7.0 | 11.0 | 0.00 | 0.07 | 0.00 | 68 | 1017.4 |
| 20260510105804 | 54 | 329 | 7.0 | 11.0 | 0.00 | 0.07 | 0.00 | 68 | 1017.6 |
| 20260510105307 | 54 | 323 | 6.0 | 9.0 | 0.00 | 0.07 | 0.00 | 69 | 1017.5 |
| 20260510104759 | 54 | 336 | 6.0 | 9.0 | 0.00 | 0.07 | 0.00 | 68 | 1017.4 |
| 20260510104039 | 54 | 335 | 5.0 | 10.0 | 0.00 | 0.07 | 0.00 | 68 | 1017.1 |
| 20260510103540 | 54 | 325 | 6.0 | 10.0 | 0.00 | 0.07 | 0.00 | 68 | 1017.4 |
| 20260510103039 | 54 | 319 | 6.0 | 10.0 | 0.00 | 0.07 | 0.00 | 69 | 1017.3 |
| 20260510102540 | 54 | 330 | 7.0 | 10.0 | 0.00 | 0.07 | 0.00 | 68 | 1017.3 |
| 20260510102039 | 54 | 320 | 7.0 | 10.0 | 0.00 | 0.07 | 0.00 | 68 | 1017.2 |
| 20260510101539 | 54 | 329 | 4.0 | 10.0 | 0.00 | 0.07 | 0.00 | 69 | 1017.1 |
| 20260510101039 | 55 | 321 | 6.0 | 10.0 | 0.00 | 0.07 | 0.00 | 68 | 1017.0 |
| 20260510100540 | 55 | 336 | 5.0 | 10.0 | 0.00 | 0.07 | 0.00 | 68 | 1016.8 |
| 20260510100304 | 55 | 321 | 5.0 | 8.0 | 0.00 | 0.07 | 0.00 | 68 | 1016.7 |
| 20260510095540 | 55 | 318 | 4.0 | 8.0 | 0.00 | 0.07 | 0.00 | 68 | 1016.8 |
| 20260510095039 | 55 | 332 | 2.0 | 10.0 | 0.00 | 0.07 | 0.00 | 68 | 1016.6 |
| 20260510094539 | 55 | 319 | 5.0 | 10.0 | 0.00 | 0.07 | 0.00 | 68 | 1016.7 |
| 20260510094040 | 55 | 330 | 6.0 | 10.0 | 0.00 | 0.07 | 0.00 | 69 | 1016.7 |
| 20260510093540 | 55 | 344 | 6.0 | 10.0 | 0.00 | 0.07 | 0.00 | 70 | 1016.4 |
| 20260510093039 | 55 | 334 | 4.0 | 10.0 | 0.00 | 0.07 | 0.00 | 70 | 1016.3 |
| 20260510092540 | 55 | 354 | 6.0 | 10.0 | 0.00 | 0.07 | 0.00 | 70 | 1016.1 |
| 20260510092308 | 55 | 0 | 7.0 | 10.0 | 0.00 | 0.07 | 0.00 | 70 | 1016.2 |
| 20260510091539 | 56 | 0 | 4.0 | 10.0 | 0.00 | 0.07 | 0.00 | 70 | 1016.2 |
| 20260510091305 | 56 | 333 | 5.0 | 10.0 | 0.00 | 0.07 | 0.00 | 70 | 1015.9 |
| 20260510090539 | 56 | 320 | 4.0 | 10.0 | 0.00 | 0.07 | 0.00 | 71 | 1015.9 |
| 20260510090039 | 56 | 6 | 7.0 | 13.0 | 0.00 | 0.07 | 0.00 | 71 | 1016.3 |
| 20260510085759 | 56 | 335 | 6.0 | 14.0 | 0.00 | 0.07 | 0.00 | 72 | 1016.0 |
| 20260510085039 | 56 | 17 | 6.0 | 14.0 | 0.00 | 0.07 | 0.00 | 72 | 1016.0 |
| 20260510084540 | 56 | 317 | 5.0 | 14.0 | 0.00 | 0.07 | 0.00 | 75 | 1015.8 |
| 20260510084039 | 56 | 6 | 8.0 | 14.0 | 0.00 | 0.07 | 0.00 | 77 | 1015.4 |
| 20260510083539 | 56 | 14 | 6.0 | 11.0 | 0.00 | 0.07 | 0.00 | 77 | 1015.4 |
| 20260510083040 | 56 | 352 | 5.0 | 11.0 | 0.00 | 0.08 | 0.00 | 78 | 1015.4 |
| 20260510082539 | 56 | 344 | 8.0 | 10.0 | 0.00 | 0.08 | 0.00 | 78 | 1015.3 |
| 20260510082040 | 57 | 337 | 5.0 | 10.0 | 0.00 | 0.08 | 0.00 | 77 | 1015.2 |
| 20260510081540 | 57 | 334 | 4.0 | 14.0 | 0.00 | 0.08 | 0.00 | 76 | 1015.4 |
| 20260510081039 | 58 | 324 | 6.0 | 14.0 | 0.00 | 0.08 | 0.00 | 75 | 1015.3 |
| 20260510080540 | 58 | 320 | 6.0 | 11.0 | 0.00 | 0.08 | 0.00 | 74 | 1015.3 |
| 20260510080040 | 58 | 320 | 7.0 | 14.0 | 0.00 | 0.08 | 0.00 | 74 | 1015.4 |
| 20260510075539 | 58 | 355 | 7.0 | 14.0 | 0.00 | 0.08 | 0.00 | 76 | 1015.3 |
| 20260510075307 | 59 | 337 | 9.0 | 14.0 | 0.00 | 0.08 | 0.00 | 78 | 1015.3 |
| 20260510074540 | 59 | 319 | 6.0 | 13.0 | 0.00 | 0.08 | 0.00 | 77 | 1015.3 |
| 20260510074039 | 59 | 308 | 6.0 | 13.0 | 0.00 | 0.08 | 0.00 | 78 | 1015.2 |
| 20260510073539 | 59 | 322 | 8.0 | 11.0 | 0.00 | 0.08 | 0.00 | 79 | 1015.2 |
| 20260510073039 | 59 | 331 | 5.0 | 9.0 | 0.00 | 0.08 | 0.00 | 79 | 1015.2 |
| 20260510072540 | 59 | 318 | 5.0 | 9.0 | 0.00 | 0.08 | 0.00 | 79 | 1015.0 |
| 20260510072040 | 59 | 320 | 6.0 | 7.0 | 0.00 | 0.08 | 0.00 | 80 | 1014.8 |
| 20260510071801 | 59 | 341 | 3.0 | 7.0 | 0.00 | 0.08 | 0.00 | 80 | 1014.9 |
| 20260510071039 | 59 | 325 | 4.0 | 7.0 | 0.00 | 0.08 | 0.00 | 80 | 1014.7 |
| 20260510070539 | 59 | 329 | 4.0 | 7.0 | 0.00 | 0.08 | 0.00 | 80 | 1014.7 |
| 20260510070040 | 59 | 340 | 5.0 | 7.0 | 0.00 | 0.08 | 0.00 | 83 | 1014.7 |
| 20260510065805 | 58 | 341 | 2.0 | 7.0 | 0.00 | 0.08 | 0.00 | 85 | 1014.6 |
| 20260510065040 | 59 | 339 | 4.0 | 7.0 | 0.00 | 0.08 | 0.00 | 84 | 1014.6 |
| 20260510064756 | 59 | 347 | 3.0 | 7.0 | 0.00 | 0.08 | 0.00 | 84 | 1014.2 |
| 20260510064307 | 59 | 358 | 4.0 | 7.0 | 0.00 | 0.08 | 0.00 | 84 | 1014.3 |
| 20260510063542 | 59 | 1 | 2.0 | 7.0 | 0.00 | 0.08 | 0.00 | 85 | 1014.5 |
| 20260510063042 | 59 | 333 | 2.0 | 6.0 | 0.00 | 0.08 | 0.00 | 86 | 1014.4 |
| 20260510062542 | 59 | 335 | 2.0 | 4.0 | 0.00 | 0.08 | 0.00 | 86 | 1014.6 |
| 20260510062042 | 59 | 338 | 2.0 | 4.0 | 0.00 | 0.08 | 0.00 | 87 | 1014.5 |
| 20260510061542 | 59 | 339 | 2.0 | 4.0 | 0.00 | 0.08 | 0.00 | 87 | 1014.7 |
| 20260510061302 | 59 | 334 | 2.0 | 4.0 | 0.00 | 0.08 | 0.00 | 88 | 1014.6 |
| 20260510060542 | 59 | 338 | 3.0 | 4.0 | 0.00 | 0.08 | 0.00 | 89 | 1014.3 |
| 20260510060042 | 59 | 338 | 2.0 | 4.0 | 0.00 | 0.08 | 0.00 | 89 | 1014.5 |
| 20260510055800 | 59 | 345 | 2.0 | 4.0 | 0.00 | 0.08 | 0.00 | 89 | 1014.4 |
| 20260510055042 | 59 | 350 | 2.0 | 6.0 | 0.00 | 0.08 | 0.00 | 89 | 1014.2 |
| 20260510054542 | 59 | 30 | 2.0 | 6.0 | 0.00 | 0.08 | 0.00 | 89 | 1013.9 |
| 20260510054042 | 59 | 31 | 4.0 | 7.0 | 0.00 | 0.08 | 0.00 | 89 | 1014.2 |
| 20260510053542 | 60 | 19 | 2.0 | 8.0 | 0.00 | 0.08 | 0.00 | 89 | 1014.2 |
| 20260510053042 | 60 | 358 | 3.0 | 8.0 | 0.00 | 0.08 | 0.00 | 89 | 1013.9 |
| 20260510052542 | 60 | 0 | 3.0 | 8.0 | 0.00 | 0.08 | 0.00 | 88 | 1013.8 |
| 20260510052042 | 60 | 20 | 3.0 | 7.0 | 0.00 | 0.08 | 0.00 | 88 | 1013.9 |
| 20260510051542 | 61 | 21 | 4.0 | 8.0 | 0.00 | 0.08 | 0.00 | 89 | 1014.2 |
| 20260510051043 | 61 | 357 | 6.0 | 10.0 | 0.00 | 0.08 | 0.00 | 89 | 1014.0 |
| 20260510050542 | 61 | 3 | 3.0 | 10.0 | 0.00 | 0.08 | 0.00 | 90 | 1013.8 |
| 20260510050039 | 61 | 18 | 5.0 | 9.0 | 0.00 | 0.08 | 0.00 | 90 | 1013.7 |
| 20260510045539 | 61 | 342 | 7.0 | 10.0 | 0.00 | 0.08 | 0.08 | 91 | 1013.6 |
| 20260510045040 | 61 | 5 | 6.0 | 10.0 | 0.00 | 0.08 | 0.08 | 92 | 1013.7 |
| 20260510044539 | 61 | 344 | 5.0 | 10.0 | 0.00 | 0.08 | 0.08 | 92 | 1013.7 |
| 20260510044040 | 61 | 339 | 5.0 | 10.0 | 0.00 | 0.08 | 0.08 | 93 | 1013.6 |
| 20260510043539 | 61 | 351 | 5.0 | 9.0 | 0.00 | 0.08 | 0.08 | 93 | 1013.5 |
| 20260510043520 | 61 | 345 | 5.0 | 8.0 | 0.00 | 0.08 | 0.08 | 94 | 1013.3 |
| 20260510042540 | 61 | 352 | 4.0 | 7.0 | 0.00 | 0.08 | 0.08 | 94 | 1013.3 |
| 20260510042040 | 61 | 344 | 3.0 | 6.0 | 0.00 | 0.08 | 0.08 | 94 | 1013.2 |
| 20260510041540 | 61 | 334 | 2.0 | 6.0 | 0.00 | 0.08 | 0.08 | 94 | 1013.3 |
| 20260510041040 | 61 | 334 | 2.0 | 4.0 | 0.00 | 0.08 | 0.08 | 94 | 1013.2 |
| 20260510040539 | 61 | 345 | 2.0 | 4.0 | 0.00 | 0.08 | 0.08 | 94 | 1013.1 |
| 20260510040258 | 61 | 349 | 2.0 | 4.0 | 0.00 | 0.08 | 0.08 | 94 | 1012.9 |
| 20260510040019 | 60 | 323 | 2.0 | 6.0 | 0.00 | 0.08 | 0.08 | 95 | 1012.9 |
| 20260510035039 | 60 | 326 | 2.0 | 6.0 | 0.00 | 0.08 | 0.08 | 94 | 1012.8 |
| 20260510034540 | 61 | 333 | 3.0 | 4.0 | 0.00 | 0.08 | 0.08 | 94 | 1013.0 |
| 20260510034039 | 61 | 345 | 2.0 | 3.0 | 0.00 | 0.08 | 0.08 | 94 | 1012.6 |
| 20260510033539 | 61 | 356 | 2.0 | 3.0 | 0.00 | 0.08 | 0.08 | 94 | 1012.5 |
| 20260510033040 | 61 | 4 | 2.0 | 3.0 | 0.00 | 0.08 | 0.08 | 94 | 1012.5 |
| 20260510032540 | 61 | 9 | 2.0 | 4.0 | 0.00 | 0.08 | 0.08 | 94 | 1012.4 |
| 20260510032039 | 61 | 19 | 2.0 | 4.0 | 0.00 | 0.08 | 0.08 | 94 | 1012.4 |
| 20260510031539 | 61 | 351 | 2.0 | 3.0 | 0.00 | 0.08 | 0.08 | 94 | 1012.5 |
| 20260510031040 | 61 | 27 | 3.0 | 6.0 | 0.00 | 0.08 | 0.08 | 94 | 1012.3 |
| 20260510030539 | 61 | 3 | 3.0 | 6.0 | 0.00 | 0.08 | 0.08 | 94 | 1011.9 |
| 20260510030040 | 61 | 13 | 2.0 | 3.0 | 0.00 | 0.08 | 0.08 | 94 | 1012.2 |
| 20260510025802 | 61 | 20 | 2.0 | 4.0 | 0.00 | 0.08 | 0.08 | 93 | 1011.9 |
| 20260510025306 | 61 | 359 | 3.0 | 4.0 | 0.00 | 0.08 | 0.08 | 93 | 1011.8 |
| 20260510024540 | 61 | 37 | 3.0 | 4.0 | 0.00 | 0.08 | 0.08 | 93 | 1011.4 |
| 20260510024040 | 61 | 40 | 2.0 | 4.0 | 0.00 | 0.08 | 0.08 | 93 | 1011.5 |
| 20260510023802 | 61 | 77 | 2.0 | 7.0 | 0.01 | 0.08 | 0.08 | 93 | 1011.4 |
| 20260510023040 | 61 | 76 | 1.0 | 7.0 | 0.04 | 0.08 | 0.08 | 93 | 1011.2 |
| 20260510022539 | 61 | 50 | 3.0 | 4.0 | 0.06 | 0.08 | 0.08 | 92 | 1011.2 |
| 20260510022040 | 61 | 43 | 2.0 | 7.0 | 0.07 | 0.08 | 0.08 | 92 | 1011.5 |
| 20260510021540 | 61 | 43 | 5.0 | 9.0 | 0.07 | 0.08 | 0.08 | 92 | 1011.2 |
| 20260510021039 | 61 | 351 | 5.0 | 9.0 | 0.07 | 0.08 | 0.08 | 92 | 1011.3 |
| 20260510020540 | 61 | 17 | 5.0 | 10.0 | 0.07 | 0.08 | 0.08 | 92 | 1011.1 |
| 20260510020040 | 61 | 359 | 7.0 | 14.0 | 0.07 | 0.08 | 0.08 | 92 | 1011.2 |
| 20260510015539 | 61 | 325 | 6.0 | 19.0 | 0.07 | 0.08 | 0.08 | 92 | 1011.4 |
| 20260510015040 | 61 | 333 | 8.0 | 19.0 | 0.07 | 0.08 | 0.08 | 92 | 1011.1 |
| 20260510014540 | 61 | 308 | 11.0 | 21.0 | 0.07 | 0.08 | 0.08 | 92 | 1011.2 |
| 20260510014303 | 61 | 314 | 11.0 | 23.0 | 0.07 | 0.08 | 0.08 | 91 | 1010.9 |
| 20260510013542 | 61 | 313 | 6.0 | 23.0 | 0.06 | 0.07 | 0.07 | 90 | 1011.2 |
| 20260510013042 | 62 | 336 | 12.0 | 25.0 | 0.03 | 0.05 | 0.05 | 86 | 1011.0 |
| 20260510012802 | 63 | 299 | 5.0 | 38.0 | 0.01 | 0.04 | 0.02 | 82 | 1011.2 |
| 20260510012042 | 68 | 315 | 13.0 | 38.0 | 0.00 | 0.04 | 0.01 | 71 | 1010.4 |
| 20260510011542 | 72 | 299 | 9.0 | 10.0 | 0.00 | 0.05 | 0.01 | 64 | 1009.3 |
| 20260510011046 | 72 | 196 | 2.0 | 2.0 | 0.00 | 0.05 | 0.01 | 63 | 1008.6 |
| 20260510010542 | 72 | 195 | 1.0 | 3.0 | 0.00 | 0.06 | 0.01 | 63 | 1008.3 |
| 20260510010043 | 72 | 195 | 1.0 | 3.0 | 0.00 | 0.06 | 0.01 | 61 | 1008.3 |
| 20260510005542 | 72 | 186 | 2.0 | 3.0 | 0.00 | 0.07 | 0.01 | 61 | 1008.1 |
| 20260510005042 | 73 | 197 | 2.0 | 3.0 | 0.00 | 0.08 | 0.01 | 61 | 1008.1 |
| 20260510004542 | 73 | 197 | 2.0 | 3.0 | 0.00 | 0.08 | 0.01 | 59 | 1008.1 |
| 20260510004042 | 74 | 197 | 1.0 | 3.0 | 0.00 | 0.09 | 0.01 | 58 | 1008.4 |
| 20260510003541 | 75 | 197 | 2.0 | 3.0 | 0.00 | 0.10 | 0.01 | 58 | 1008.1 |
| 20260510003042 | 75 | 197 | 1.0 | 3.0 | 0.00 | 0.10 | 0.01 | 57 | 1008.1 |
| 20260510002542 | 75 | 197 | 2.0 | 3.0 | 0.00 | 0.12 | 0.01 | 57 | 1008.1 |
| 20260510002041 | 75 | 197 | 2.0 | 3.0 | 0.00 | 0.14 | 0.01 | 57 | 1008.2 |
| 20260510001541 | 76 | 197 | 1.0 | 3.0 | 0.00 | 0.15 | 0.01 | 57 | 1008.2 |
| 20260510001041 | 76 | 197 | 1.0 | 3.0 | 0.00 | 0.17 | 0.01 | 56 | 1008.5 |
| 20260510000541 | 76 | 197 | 1.0 | 3.0 | 0.00 | 0.17 | 0.01 | 55 | 1008.1 |
| 20260510000041 | 76 | 197 | 1.0 | 3.0 | 0.00 | 0.21 | 0.01 | 55 | 1008.5 |
| 20260509235539 | 76 | 197 | 1.0 | 3.0 | 0.00 | 0.22 | 0.01 | 55 | 1008.6 |
| 20260509235038 | 77 | 233 | 1.0 | 4.0 | 0.00 | 0.23 | 0.01 | 54 | 1008.4 |
| 20260509234539 | 77 | 233 | 1.0 | 4.0 | 0.00 | 0.23 | 0.01 | 54 | 1008.5 |
| 20260509234039 | 77 | 239 | 2.0 | 3.0 | 0.00 | 0.23 | 0.01 | 55 | 1008.3 |
| 20260509233539 | 77 | 225 | 1.0 | 4.0 | 0.00 | 0.24 | 0.01 | 51 | 1008.4 |
| 20260509233038 | 77 | 294 | 0.0 | 4.0 | 0.00 | 0.24 | 0.01 | 51 | 1008.4 |
| 20260509232537 | 77 | 272 | 1.0 | 6.0 | 0.00 | 0.24 | 0.01 | 52 | 1008.3 |
| 20260509232037 | 77 | 273 | 2.0 | 6.0 | 0.00 | 0.24 | 0.01 | 52 | 1008.5 |
| 20260509231538 | 77 | 312 | 0.0 | 4.0 | 0.00 | 0.24 | 0.01 | 49 | 1008.6 |
| 20260509231037 | 78 | 243 | 2.0 | 7.0 | 0.00 | 0.24 | 0.01 | 48 | 1008.3 |
| 20260509230536 | 78 | 259 | 1.0 | 7.0 | 0.00 | 0.24 | 0.01 | 48 | 1008.5 |
| 20260509230036 | 78 | 248 | 2.0 | 6.0 | 0.00 | 0.24 | 0.01 | 47 | 1008.4 |
| 20260509225536 | 79 | 291 | 4.0 | 6.0 | 0.00 | 0.24 | 0.01 | 44 | 1008.7 |
| 20260509225301 | 80 | 296 | 1.0 | 9.0 | 0.00 | 0.24 | 0.01 | 48 | 1008.4 |
| 20260509224755 | 80 | 226 | 4.0 | 9.0 | 0.00 | 0.25 | 0.01 | 45 | 1008.6 |
| 20260509224035 | 80 | 242 | 4.0 | 8.0 | 0.00 | 0.26 | 0.01 | 46 | 1008.4 |
| 20260509223535 | 80 | 221 | 5.0 | 8.0 | 0.00 | 0.26 | 0.01 | 44 | 1008.5 |
| 20260509223034 | 80 | 232 | 4.0 | 7.0 | 0.00 | 0.26 | 0.01 | 46 | 1008.4 |
| 20260509222534 | 80 | 340 | 2.0 | 6.0 | 0.00 | 0.26 | 0.01 | 44 | 1008.3 |
| 20260509222036 | 80 | 83 | 1.0 | 7.0 | 0.00 | 0.27 | 0.01 | 46 | 1008.4 |
| 20260509221536 | 81 | 332 | 1.0 | 7.0 | 0.00 | 0.27 | 0.01 | 44 | 1008.4 |
| 20260509221035 | 81 | 287 | 4.0 | 9.0 | 0.00 | 0.28 | 0.01 | 43 | 1008.5 |
| 20260509220535 | 81 | 320 | 2.0 | 9.0 | 0.00 | 0.28 | 0.01 | 42 | 1008.4 |
| 20260509220035 | 81 | 346 | 1.0 | 8.0 | 0.00 | 0.28 | 0.01 | 44 | 1008.5 |
| 20260509215534 | 81 | 257 | 4.0 | 8.0 | 0.00 | 0.28 | 0.01 | 43 | 1008.5 |
| 20260509215034 | 81 | 27 | 1.0 | 10.0 | 0.00 | 0.29 | 0.01 | 41 | 1008.4 |
| 20260509214535 | 81 | 249 | 4.0 | 10.0 | 0.00 | 0.29 | 0.01 | 43 | 1008.5 |
| 20260509214301 | 81 | 288 | 4.0 | 9.0 | 0.00 | 0.29 | 0.01 | 42 | 1008.6 |